Location: Multiple Mirror Telescope
(31.6889°N, 110.8853°W)
Time: 13:26:38
(UTC-07:00)

Hubble Space Telescope - Pass Details

Date: 03 December 2023
Orbit: 516 x 519 km, 28.5° (Epoch: 27 February)

Event Time Altitude Azimuth Distance (km) Brightness Sun altitude
Rises 18:39:24 0° 266° (W) 2,618 5.9 -16.7°
Reaches altitude 10° 18:42:00 10° 251° (WSW) 1,731 4.7 -17.2°
Maximum altitude 18:45:06 22° 200° (SSW) 1,170 2.9 -17.9°
Drops below altitude 10° 18:48:12 10° 149° (SSE) 1,732 3.2 -18.5°
Enters shadow 18:48:23 - 147° (SSE) 1,787 3.2 -18.5°
